Presure
197 193 204 210 196 197 196 206 215 226 208 196 241 248 263 266 271 261 265 265 271 321 292 273 287 325 364 345 357 353 365 379 388 381 379 379 375 372 365 250 254 265 271
188 193 190 189 200 192 207 201 205 187 215 215 203 228 230 249 251 268 256 250 266 274 333 308 267 280 301 367 340 354 346 352 363 374 369 364 364 360 354 350 248 245 256
178 182 172 193 191 189 188 204 200 201 209 205 210 199 217 206 240 254 257 266 264 269 275 347 314 265 276 296 346 351 348 339 346 352 358 355 350 349 346 341 336 308 245
185 181 174 175 194 194 194 190 190 195 194 198 205 212 206 203 213 228 245 255 264 272 266 273 370 314 259 272 285 322 370 344 337 339 342 343 340 336 333 331 328 320 306
180 170 181 174 190 191 195 186 191 185 194 194 189 205 204 210 213 218 208 238 251 271 268 267 280 364 309 256 272 279 329 375 355 344 336 333 331 329 325 324 324 319 314
172 172 176 170 189 195 191 194 194 192 185 194 194 196 204 203 196 213 227 243 213 264 266 266 277 397 352 297 254 270 278 317 356 417 344 336 331 327 323 319 318 317 315
172 169 168 179 179 178 195 198 195 196 192 188 194 195 196 203 198 214 222 196 221 218 261 272 267 345 393 329 287 252 264 286 316 306 401 424 352 340 328 322 321 318 314
170 165 170 162 181 184 177 201 197 193 198 194 186 195 195 199 187 205 217 195 204 237 229 275 267 280 402 377 307 272 251 266 287 305 315 332 413 448 354 360 339 326 322
161 168 164 171 169 178 187 176 185 202 196 198 195 187 194 194 193 203 197 218 201 246 247 243 267 280 402 393 339 290 260 247 262 287 287 308 318 354 441 308 324 338 345
169 162 165 143 168 176 175 190 177 199 201 208 193 195 192 193 184 193 173 180 199 224 205 265 272 280 432 407 380 303 273 252 256 255 264 284 303 311 316 325 329 330 343
160 149 164 171 170 171 169 177 170 173 191 217 212 195 195 190 190 190 197 173 195 224 208 217 267 287 439 434 394 330 281 254 242 251 266 257 271 297 295 292 305 308 311
163 157 161 152 168 165 170 170 183 181 170 204 217 207 195 195 194 184 193 209 199 207 227 213 262 297 442 453 424 370 290 259 242 252 250 247 255 295 294 300 305 309 315
161 165 162 163 170 170 161 173 173 183 174 179 201 218 202 198 195 198 192 192 215 202 200 209 234 281 495 478 451 389 303 266 237 266 260 254 250 269 278 306 305 311 307
161 161 148 166 157 161 167 166 170 174 172 173 189 180 205 199 194 200 194 194 203 211 210 215 254 308 528 497 464 411 306 261 235 257 265 265 281 289 291 306 321 313 308
150 160 161 159 164 150 168 168 161 167 180 167 175 182 209 205 202 198 201 188 195 188 211 194 231 215 559 528 490 430 290 240 238 244 255 252 240 263 267 276 279 277 289
148 163 170 159 154 161 169 166 162 171 164 173 173 180 184 215 201 199 201 199 195 195 174 175 225 198 212 552 356 248 229 229 236 225 266 258 241 271 241 275 278 273 278
147 167 140 148 152 166 167 159 165 170 171 174 180 174 179 182 214 204 194 196 200 181 194 171 182 218 184 306 334 305 281 251 230 236 228 228 244 234 240 270 270 266 265
143 163 150 163 143 156 167 154 175 163 175 171 175 182 165 173 201 206 205 195 192 194 193 190 199 203 182 220 244 288 326 290 278 250 234 234 229 226 226 245 271 259 260
143 162 146 152 164 162 157 163 166 167 171 177 178 178 165 175 183 205 214 200 189 189 195 198 191 213 178 217 211 279 294 293 317 285 271 249 236 234 233 229 243 260 270
162 161 149 145 153 159 161 155 169 171 168 144 180 175 181 161 178 189 201 208 199 192 184 194 169 194 181 215 227 193 233 262 303 341 300 278 265 240 234 232 241 234 230
162 158 158 151 160 159 161 155 168 169 168 161 176 176 176 163 181 192 183 203 204 195 193 180 199 172 195 171 182 197 259 255 283 299 360 321 283 267 246 238 232 243 238
154 156 157 152 149 163 155 165 164 170 168 156 173 180 174 197 162 185 182 192 204 201 197 195 201 196 180 212 183 230 189 201 256 251 287 348 338 292 273 255 239 229 228
153 152 158 159 153 162 154 152 170 168 170 161 178 185 172 181 179 172 185 197 199 202 203 194 202 196 205 199 209 189 214 222 241 239 282 286 371 347 299 276 257 240 230
152 152 162 154 161 163 157 164 168 164 162 167 169 176 179 174 190 164 199 194 191 204 195 200 200 209 186 201 206 199 179 204 197 253 231 259 321 384 349 307 278 258 242
159 162 161 131 166 160 162 170 166 163 163 163 171 173 179 181 185 171 190 189 201 194 203 193 202 195 192 199 210 210 211 196 235 229 248 235 262 443 397 353 312 278 254
140 157 162 170 162 161 167 156 164 153 163 169 175 179 173 168 183 187 184 183 196 189 202 192 196 202 194 196 191 189 215 226 237 229 243 227 261 274 451 411 359 316 279
Wind_Speed
90 91 92 90 86 81 83 94 95 90 89 80 92 95 95 93 90 83 87 83 90 61 59 58 58 52 34 33 26 20 14 5 8 21 34 45 56 65 77 118 117 116 114
87 89 86 86 90 83 92 90 91 68 91 96 89 93 92 95 95 92 86 75 87 92 57 56 52 52 53 31 29 22 15 8 4 14 29 41 52 61 70 81 117 116 115
82 86 77 91 88 86 80 91 91 90 97 93 95 81 92 92 94 94 92 94 89 91 92 56 50 47 46 47 34 21 16 10 4 11 22 35 47 56 63 71 81 104 115
81 82 79 78 86 87 88 85 81 87 84 88 97 99 94 88 93 95 94 93 94 96 90 89 45 42 39 40 40 36 14 8 5 11 21 31 42 52 58 64 72 84 100
75 75 81 82 84 81 83 85 84 77 85 85 73 95 91 95 97 89 91 94 94 96 94 90 94 37 34 33 33 33 31 17 7 9 19 30 39 48 55 61 67 76 85
72 73 77 75 82 76 79 78 80 82 80 85 84 85 91 85 76 101 96 96 91 96 94 92 96 38 27 27 27 27 28 30 20 6 16 27 36 44 52 57 62 68 75
71 72 74 77 82 82 80 74 76 78 80 83 86 85 79 88 75 100 98 71 97 96 94 94 91 70 29 17 19 21 21 24 27 21 13 6 29 40 45 50 57 62 66
69 68 73 72 81 81 81 75 74 77 76 78 81 85 83 85 59 89 99 72 88 94 103 99 94 100 33 20 12 12 16 18 21 26 25 22 11 5 30 36 47 52 58
63 69 68 74 77 79 85 83 85 77 78 76 78 81 85 82 73 90 67 93 80 95 97 96 101 101 35 21 8 7 10 13 16 22 23 26 22 21 10 20 20 21 26
59 63 69 67 74 80 79 85 80 86 82 73 79 79 81 85 68 74 46 58 77 103 86 99 103 101 35 23 8 7 2 9 12 16 19 25 26 21 16 11 4 3 7
55 56 65 71 70 74 79 81 76 84 92 77 71 76 79 81 83 80 88 58 66 105 92 102 105 104 37 27 11 11 6 2 10 13 17 19 24 23 16 12 13 7 10
54 55 59 57 69 73 79 81 84 84 81 87 79 71 77 79 83 79 85 95 77 93 102 101 103 106 41 23 12 7 13 5 9 12 15 18 19 26 25 24 19 18 14
55 57 59 61 67 70 72 79 84 84 85 88 94 76 74 77 81 81 87 76 95 85 83 95 112 105 26 17 10 5 17 12 10 12 14 17 21 25 25 25 22 18 16
52 55 51 63 59 68 73 75 79 83 81 85 92 92 76 75 79 80 84 84 90 95 96 102 106 106 17 11 5 7 20 20 16 21 22 26 27 26 29 31 24 23 23
49 53 55 58 65 56 71 74 70 79 83 80 85 93 84 74 76 79 79 84 86 68 91 71 105 105 14 5 6 11 24 25 23 25 22 23 26 31 27 27 28 31 36
45 54 56 56 56 65 71 71 67 79 72 82 81 91 95 78 76 77 76 79 86 90 47 53 102 75 97 5 44 49 38 33 31 28 27 27 29 32 34 32 33 32 35
46 56 48 43 51 67 72 62 67 76 82 84 87 83 88 94 74 75 77 78 81 67 84 45 53 101 45 92 63 53 46 32 27 29 26 28 29 31 34 31 29 29 30
45 52 50 60 45 62 68 57 75 68 81 78 83 87 77 86 90 79 75 76 79 79 86 61 85 91 53 100 91 86 47 42 39 27 26 27 27 27 30 32 26 29 29
44 50 46 49 60 65 63 68 75 73 78 80 79 80 73 88 96 86 73 74 69 82 85 87 66 95 48 101 91 86 81 75 34 34 32 24 24 26 27 29 31 29 27
49 50 48 42 55 62 65 61 74 75 76 52 84 82 83 70 90 92 87 74 72 77 79 84 37 82 42 98 87 75 82 82 80 33 27 27 25 21 24 24 27 29 28
49 49 52 50 58 61 66 62 73 74 76 67 79 84 78 62 87 91 88 81 73 75 76 75 82 42 80 40 50 69 76 80 87 84 28 23 23 23 17 21 23 26 27
44 49 52 53 49 62 58 69 70 74 76 57 77 81 77 83 63 91 86 89 76 73 76 80 80 81 54 88 43 85 50 78 85 78 85 36 21 20 20 15 18 22 24
48 47 54 56 54 59 54 58 72 72 74 64 82 81 77 84 77 72 87 87 84 76 74 77 77 81 84 68 85 50 92 83 83 80 88 86 27 21 19 19 13 16 18
50 49 56 54 59 60 56 64 68 71 67 73 75 80 83 79 86 58 85 88 83 76 78 78 77 76 78 86 73 84 38 87 56 78 79 85 80 25 21 19 18 12 16
55 56 57 26 60 56 60 64 63 67 71 67 76 77 78 82 83 67 85 87 84 83 73 78 76 76 80 82 81 85 79 80 73 83 77 77 86 23 21 20 20 18 11
31 54 60 60 55 60 64 52 63 50 72 77 80 78 76 67 81 84 83 82 80 79 76 75 75 74 77 79 70 78 81 80 74 72 81 72 82 88 21 20 20 21 18
Wind_Direction
31 32 31 28 33 34 34 31 31 32 33 30 34 35 35 35 34 33 33 31 31 17 18 21 21 23 23 26 18 22 18 355 227 213 212 213 214 214 216 227 228 229 231
27 28 29 30 27 30 27 30 30 31 28 28 30 29 31 34 33 33 31 26 30 29 17 14 19 19 22 22 24 15 17 12 291 229 217 214 214 214 216 218 227 229 231
23 23 21 22 24 25 29 23 25 26 26 27 27 28 29 29 30 30 31 30 28 29 27 17 11 16 17 19 23 16 12 0 285 239 227 219 216 216 217 219 220 223 230
23 23 22 19 20 18 19 22 25 23 27 26 24 23 28 29 27 28 29 27 26 26 24 24 11 7 14 14 14 24 359 357 290 243 230 224 218 216 217 219 221 224 226
22 16 23 18 19 18 17 18 18 22 21 24 28 22 23 25 26 27 29 24 24 25 25 21 20 6 2 8 12 12 25 16 277 240 232 227 223 220 221 222 223 224 226
18 20 21 17 23 20 17 16 14 15 19 19 21 23 21 25 33 21 20 19 23 23 22 20 19 6 0 357 3 9 12 28 28 326 231 225 227 226 226 226 228 228 229
16 18 18 21 20 19 21 17 15 12 14 15 16 17 22 19 27 15 18 28 20 19 18 18 16 11 358 348 350 357 9 20 37 29 31 317 229 226 227 232 233 233 233
14 16 17 13 22 21 17 21 18 14 12 11 14 12 16 18 24 18 12 27 22 15 12 17 14 12 356 347 332 345 355 10 25 40 38 36 31 345 228 231 235 235 237
9 15 14 16 16 19 23 19 20 16 13 10 9 13 10 15 20 14 25 12 24 14 15 14 13 10 357 350 308 311 339 0 22 36 32 45 43 48 48 232 225 228 234
10 9 13 355 14 18 17 21 16 18 13 11 9 8 10 9 18 17 3 5 24 15 22 14 12 8 350 345 327 238 285 349 14 20 27 38 43 49 52 52 47 260 267
6 353 8 11 13 17 15 15 12 13 18 13 10 7 6 9 11 15 16 9 22 8 20 16 12 7 350 347 338 199 203 0 8 27 35 27 30 35 33 14 7 331 283
2 4 9 4 12 14 15 12 16 16 9 15 10 7 6 6 6 14 12 7 15 12 12 16 12 7 350 347 353 194 173 126 24 33 27 21 12 27 22 10 1 348 339
359 0 6 8 8 12 12 12 12 16 13 14 16 7 6 4 5 5 9 13 4 5 22 18 11 10 349 351 2 159 156 116 50 58 34 17 11 14 15 13 10 9 356
355 357 354 3 10 10 9 11 10 13 11 13 15 11 8 4 4 4 4 10 8 4 8 10 13 13 347 352 50 109 133 88 55 46 37 27 21 26 29 28 28 26 22
350 354 358 3 2 357 5 8 8 10 11 7 10 12 11 6 4 4 1 7 8 9 5 21 9 19 2 36 123 102 88 60 46 37 35 28 28 31 21 27 32 38 38
345 351 352 359 0 1 1 5 5 6 8 9 9 10 11 7 4 4 2 0 2 6 7 13 6 23 21 55 40 44 38 29 27 19 32 27 24 21 22 29 32 33 37
337 344 342 347 357 357 356 1 3 2 3 7 8 5 8 8 3 1 4 1 1 16 11 3 20 6 25 31 29 24 23 28 16 16 13 9 15 12 19 19 30 36 33
331 341 344 346 346 354 354 356 353 2 1 4 4 7 360 5 10 4 2 3 1 3 6 12 8 10 21 10 24 31 16 9 7 11 4 3 3 4 4 12 22 15 19
327 337 339 346 342 347 350 351 351 353 356 0 2 4 358 6 6 6 2 2 2 2 2 4 10 2 16 3 16 27 29 27 2 356 357 360 355 357 1 1 9 12 19
328 332 336 341 340 344 345 350 347 350 353 354 356 1 2 358 5 6 5 2 359 358 2 2 14 6 22 0 7 24 19 23 24 360 345 340 348 348 348 355 0 4 7
325 327 329 335 334 339 340 345 344 346 349 354 355 355 0 358 3 4 5 4 360 356 357 4 359 8 6 3 16 24 24 20 26 23 348 333 327 334 339 340 347 357 2
320 323 325 330 337 332 339 337 340 343 346 351 351 353 356 359 358 1 2 4 2 358 357 359 358 358 9 356 25 3 22 18 19 18 22 357 324 308 315 328 334 343 351
313 317 317 320 327 328 337 337 335 339 343 347 347 349 353 356 356 1 358 1 1 0 357 358 357 357 355 358 354 18 357 2 13 16 23 20 320 315 291 299 313 324 337
306 313 309 318 318 321 330 330 332 335 341 342 346 347 349 353 353 355 353 358 360 357 358 357 355 355 358 355 354 355 15 360 16 19 14 19 16 301 297 275 285 295 313
297 301 305 330 313 320 322 325 330 332 335 341 341 343 347 348 350 353 354 356 356 357 355 356 352 354 354 355 354 351 356 1 6 359 17 13 20 306 287 278 264 277 286
305 301 302 305 310 315 317 326 328 338 331 332 333 338 343 345 346 349 350 352 356 355 353 355 351 351 353 352 353 354 354 1 6 8 11 11 20 23 298 279 268 257 269